Hourly Data Report for October 02, 2016

All times are specified in Local Standard Time (LST). Add 1 hour to adjust for Daylight Saving Time where and when it is observed.

CHARLOTTETOWN A
PRINCE EDWARD ISLAND

46°17'21.000" N
63°07'09.000" W
48.50 m
8300301
71706
YYG

Download Data

Hourly Data (October 2016)
Hourly Data Report for October 2, 2016
Temp Definition
°C
Dew Point Temp Definition
°C
Rel Hum Definition
%
Wind Dir Definition
10's deg

Wind Spd Definition
km/h
Visibility Definition
km
Stn Press Definition
kPa
Hmdx Definition


Wind Chill Definition


Weather Definition


TIME
00:00 Legend Double Dagger 8.3 7.2 93 36 3 24.1 101.86     LegendNANA
01:00 Legend Double Dagger 8.0 7.3 95 36 1 24.1 101.86     LegendNANA
02:00 Legend Double Dagger 9.2 8.1 93 18 3 24.1 101.81     Mostly Cloudy
03:00 Legend Double Dagger 10.7 9.9 95 17 5 24.1 101.77     LegendNANA
04:00 Legend Double Dagger 9.7 9.1 96 18 3 24.1 101.74     LegendNANA
05:00 Legend Double Dagger 10.1 9.7 97 16 3 24.1 101.71     Cloudy
06:00 Legend Double Dagger 9.8 9.4 97 16 3 24.1 101.66     LegendNANA
07:00 Legend Double Dagger 10.6 10.2 97 36 3 24.1 101.69     LegendNANA
08:00 Legend Double Dagger 11.1 10.8 98 36 3 24.1 101.64     Cloudy
09:00 Legend Double Dagger 12.9 12.4 97 18 7 24.1 101.60     LegendNANA
10:00 Legend Double Dagger 13.5 11.4 87 16 8 24.1 101.53     LegendNANA
11:00 Legend Double Dagger 14.1 11.1 82 19 11 24.1 101.52     Cloudy
12:00 Legend Double Dagger 14.2 10.1 76 23 8 24.1 101.49     LegendNANA
13:00 Legend Double Dagger 14.1 10.0 76 20 11 24.1 101.34     LegendNANA
14:00 Legend Double Dagger 15.8 10.0 68 24 13 24.1 101.31     Mostly Cloudy
15:00 Legend Double Dagger 16.4 8.2 58 26 14 24.1 101.24     LegendNANA
16:00 Legend Double Dagger 15.9 7.2 56 25 17 24.1 101.17     LegendNANA
17:00 Legend Double Dagger 15.1 5.7 53 24 9 24.1 101.07     Mainly Clear
18:00 Legend Double Dagger 12.5 7.0 69 20 11 24.1 100.99     LegendNANA
19:00 Legend Double Dagger 10.0 8.0 87 23 5 24.1 100.97     LegendNANA
20:00 Legend Double Dagger 11.2 9.6 90 22 11 24.1 100.91     Clear
21:00 Legend Double Dagger 11.1 9.2 88 23 8 24.1 100.87     LegendNANA
22:00 Legend Double Dagger 11.1 9.0 87 23 7 24.1 100.85     LegendNANA
23:00 Legend Double Dagger 12.0 9.8 86 23 7 24.1 100.77     Cloudy

Notes on Data Quality.

Legend

  • E = Estimated
  • M = Missing
  • NA = Not Available
  • ‡ = Partner data that is not subject to review by the National Climate Archives
Date modified: